This demonstration page uses our WeatherBlox Daily Observations layout. Learn more.

Left ArrowRight Arrow

39.01783, -85.05884

Hourly Observations for February 1, 2021

Temp ( °F °C ) Dew Point ( °F °C ) Humidity (%) Winds ( mph kmh ) Pressure ( in mb ) Visibility ( mi km ) Precip ( " mm )
12:52 am 00:52 Cloudy with Light Snow 31 -0.6 29 -1.7 92 92 NNW 14 22 29.84 1011 1 1 0.01 0.25
1:52 am 01:52 Cloudy with Light Snow 31 -0.6 28 -2.2 89 89 NNW 16 26 29.86 1011 1 1 0.00 0.00
2:05 am 02:05 Cloudy with Light Snow 30 -1.1 27 -2.8 88 88 NNW 16 26 29.90 1013 3 5 0.00 0.00
2:34 am 02:34 Cloudy with Light Snow 30 -1.1 27 -2.8 88 88 NNW 15 24 29.92 1013 2 3 0.00 0.00
2:52 am 02:52 Cloudy with Light Snow 30 -1.1 26 -3.3 85 85 NNW 17 28 29.88 1012 2 3 0.00 0.00
2:58 am 02:58 Cloudy with Light Snow 30 -1.1 26 -3.3 85 85 NNW 17 28 29.92 1013 2 3 0.00 0.00
3:17 am 03:17 Cloudy with Light Snow 29 -1.7 26 -3.3 89 89 NNW 16 26 29.93 1014 2 3 0.00 0.00
3:52 am 03:52 Cloudy with Light Snow 29 -1.7 26 -3.3 89 89 NNW 14 22 29.89 1012 1 2 0.00 0.00
4:04 am 04:04 Cloudy with Light Snow 29 -1.7 25 -3.9 85 85 NNW 16 26 29.93 1014 1 2 0.00 0.00
4:45 am 04:45 Cloudy with Light Snow 28 -2.2 25 -3.9 88 88 NNW 16 26 29.94 1014 2 3 0.01 0.25
4:52 am 04:52 Cloudy with Light Snow 28 -2.2 25 -3.9 88 88 NNW 17 28 29.91 1013 3 4 0.01 0.25
5:29 am 05:29 Cloudy with Light Snow 28 -2.2 25 -3.9 88 88 NNW 17 28 29.96 1015 3 5 0.00 0.00
5:52 am 05:52 Cloudy with Light Snow 28 -2.2 25 -3.9 88 88 NNW 16 26 29.93 1014 3 5 0.00 0.00
6:35 am 06:35 Cloudy with Light Snow 28 -2.2 24 -4.4 85 85 NNW 14 22 29.98 1015 3 4 0.00 0.00
6:39 am 06:39 Cloudy with Light Snow 28 -2.2 25 -3.9 88 88 NNW 16 26 29.99 1016 3 4 0.00 0.00
6:52 am 06:52 Cloudy with Light Snow 28 -2.2 24 -4.4 85 85 NNW 16 26 29.95 1014 3 4 0.00 0.00
7:52 am 07:52 Cloudy with Light Snow 28 -2.2 24 -4.4 85 85 NNW 15 24 29.98 1015 3 4 0.00 0.00
8:52 am 08:52 Cloudy with Light Snow 28 -2.2 24 -4.4 85 85 NNW 15 24 30.00 1016 4 6 0.00 0.00
9:52 am 09:52 Cloudy with Light Snow 28 -2.2 23 -5 81 81 NNW 17 28 30.01 1016 4 6 0.00 0.00
10:44 am 10:44 Cloudy with Light Snow 28 -2.2 24 -4.4 85 85 NNW 14 22 30.04 1017 3 4 0.00 0.00
10:52 am 10:52 Cloudy with Light Snow 28 -2.2 24 -4.4 85 85 NNW 13 20 30.01 1016 3 4 0.00 0.00
11:09 am 11:09 Cloudy with Light Snow 28 -2.2 24 -4.4 85 85 NNW 16 26 30.05 1018 3 5 0.00 0.00
11:32 am 11:32 Cloudy with Mist and Fog 28 -2.2 23 -5 81 81 NNW 14 22 30.05 1018 6 10 0.00 0.00
11:52 am 11:52 Cloudy with Mist and Fog 29 -1.7 24 -4.4 82 82 NNW 13 20 30.02 1017 6 10 0.00 0.00
12:52 pm 12:52 Cloudy with Mist and Fog 28 -2.2 23 -5 81 81 NW 18 30 30.01 1016 6 10 0.00 0.00
1:27 pm 13:27 Cloudy with Light Snow 29 -1.7 23 -5 78 78 NW 13 20 30.04 1017 3 5 0.00 0.00
1:52 pm 13:52 Cloudy with Mist and Fog 29 -1.7 23 -5 78 78 NW 16 26 30.01 1016 6 10 0.00 0.00
2:52 pm 14:52 Cloudy 29 -1.7 23 -5 78 78 NNW 18 30 30.01 1016 7 11 0.00 0.00
3:52 pm 15:52 Cloudy 28 -2.2 22 -5.6 78 78 NNW 17 28 30.02 1017 10 16 0.00 0.00
4:32 pm 16:32 Cloudy 28 -2.2 22 -5.6 78 78 NNW 13 20 30.06 1018 10 16 0.00 0.00
4:52 pm 16:52 Cloudy 28 -2.2 21 -6.1 75 75 NNW 13 20 30.03 1017 10 16 0.00 0.00
5:52 pm 17:52 Cloudy 28 -2.2 21 -6.1 75 75 NNW 13 20 30.05 1018 10 16 0.00 0.00
6:52 pm 18:52 Cloudy with Light Snow 28 -2.2 21 -6.1 75 75 NNW 14 22 30.07 1018 9 14 0.00 0.00
7:52 pm 19:52 Cloudy with Light Snow 28 -2.2 22 -5.6 78 78 NW 8 13 30.08 1019 5 8 0.00 0.00
8:23 pm 20:23 Cloudy with Light Snow 28 -2.2 23 -5 81 81 NW 10 17 30.11 1020 3 4 0.00 0.00
8:36 pm 20:36 Cloudy with Light Snow 28 -2.2 23 -5 81 81 NW 10 17 30.11 1020 2 2 0.00 0.00
8:52 pm 20:52 Cloudy with Light Snow 28 -2.2 24 -4.4 85 85 NW 12 19 30.08 1019 2 2 0.01 0.25
9:05 pm 21:05 Cloudy with Light Snow 28 -2.2 24 -4.4 85 85 NW 13 20 30.11 1020 2 3 0.00 0.00
9:16 pm 21:16 Cloudy with Light Snow 28 -2.2 24 -4.4 85 85 NW 12 19 30.11 1020 2 3 0.00 0.00
9:52 pm 21:52 Cloudy with Light Snow 28 -2.2 24 -4.4 85 85 NNW 12 19 30.08 1019 1 2 0.01 0.25
10:52 pm 22:52 Cloudy with Light Snow 28 -2.2 24 -4.4 85 85 NW 13 20 30.09 1019 2 2 0.01 0.25
11:52 pm 23:52 Cloudy with Light Snow 28 -2.2 24 -4.4 85 85 NNW 10 17 30.08 1019 2 2 0.01 0.25

Powered by AerisWeather